THORAD AGENA D DEB, 13518

Orbit data source: Space-Track

THORAD AGENA D DEB, 13518 is space debris in SSO originally from a launch on Wed, 08 Apr 1970 UTC launched from the Air Force Western Test Range (AFWTR). Debris objects in space refer to the collection of defunct objects orbiting the Earth. Examples of debris include non-operational satellites, rocket bodies, and fragments generated from explosions, collisions, or faulty payload assembly.

Loading next visibility...
Identifier
13518, 1970-025NR
Orbit
SSO
Country
Flag of USUS
Related business
Manufacturer
Unknown
Mission
Spacecraft
Bus & Motor
Unknown
Mass
Unknown
Launch date (UTC)
1970-04-08 (56 years ago)
Launch vehicle
Unknown
Launch site
Air Force Western Test Range (AFWTR)
Object type
Payload
Rocket body
Debris
Shape & HBR
Unknown shape, 0.1 m
Radar Cross Section
Small (<0.1 m²)

Expand to show TLE details & history
Last TLE update: 3 hours ago

TLE from 3 hours ago
0 THORAD AGENA D DEB
1 13518U 70025NR  26132.89410677  .00001045  00000-0  90764-3 0  9997
2 13518 100.0462 285.5967 0003797 196.9531 316.4256 13.88774992245450
Epoch: 2026-05-12T21:27Z
TLE epoch observation values (Epoch: 2026-05-12T21:27:30.824Z)
Latitude
26.24682°
Longitude
-81.95859°
Altitude
934.024 km
Speed
7.388 km/s
True Right ascension
07h 22m 19s
True Declination
26° 06' 50"
Sunlit
Object was in daylight at epoch
Visualization orbit readout
Latitude
Unknown
Longitude
Unknown
Altitude
Unknown
Speed
Unknown
Apparent Right ascension
Unknown
Apparent Declination
Unknown
Sunlit
N/A
Visualization observer readout
Local Sidereal Time
09:14:09
Azimuth
Unknown
Elevation
Unknown
Doppler factor
Unknown
Orbital elements
Apogee altitude
932.97 km
Perigee altitude
927.42 km
Semi-major axis
7,308.332 km
Eccentricity
0.00038
Inclination
100.0462°
RAAN
285.5967°
Arg. of periapsis
196.9531°
True anomaly
316.3956°
Mean anomaly
316.4256°
Eccentric anomaly
316.4106°
Mean motion
3.47389 °/min
Orbital period
103.63 mins
BSTAR
0.00090764

Documentation

Showing up to 5 results
|